Location: Newark
(44.2003°N, 3.2583°E)
Time: 23:17:56
(UTC+00:00)

SR - Pass Details

Date: 25 October 2019
Orbit: 574 x 882 km, 66.7° (Epoch: 16 November)

Event Time Altitude Azimuth Distance (km) Brightness Sun altitude
Rises 20:51:07 0° 218° (SW) 3,058 - -43.2°
Reaches altitude 10° 20:53:21 10° 221° (SW) 2,191 - -43.5°
Maximum altitude 20:58:22 68° 305° (NW) 822 - -44.3°
Drops below altitude 10° 21:03:53 10° 28° (NNE) 2,409 - -45.1°
Sets 21:06:27 0° 31° (NNE) 3,386 - -45.5°
